#Datum;Uhrzeit;WR;Pac;DaySum;Status;WR;Pac;DaySum;Status;Pdc1;Udc;Temp;WR;Pac;DaySum;Status;Pdc1;Udc;Temp;WR;Pac;DaySum;Status;Pdc1;Udc;Temp;WR;Pac;DaySum;Status;Pdc1;Pdc2;Udc1;Udc2;Temp;WR;Pac;DaySum;Status;Pdc1;Pdc2;Udc1;Udc2;Temp;WR;Pac;DaySum;Status;Pdc1;Udc;Temp;WR;Pac;DaySum;Status;Pdc1;Udc;Temp;WR;Pac;DaySum;Status;Pdc1;Udc;Temp
23.01.20;23:55:00;1;317;15046;0;2;0;16417;0;0;0;0;3;0;10682;0;0;0;0;4;0;12175;0;0;0;0;5;0;36096;0;0;0;0;0;0;6;0;27383;0;0;0;0;0;0;7;0;26019;0;0;0;0;8;0;25417;0;0;0;0;9;0;13572;0;0;0;0
23.01.20;23:50:00;1;338;15019;0;2;0;16417;0;0;0;0;3;0;10682;0;0;0;0;4;0;12175;0;0;0;0;5;0;36096;0;0;0;0;0;0;6;0;27383;0;0;0;0;0;0;7;0;26019;0;0;0;0;8;0;25417;0;0;0;0;9;0;13572;0;0;0;0
23.01.20;23:45:00;1;350;14990;0;2;0;16417;0;0;0;0;3;0;10682;0;0;0;0;4;0;12175;0;0;0;0;5;0;36096;0;0;0;0;0;0;6;0;27383;0;0;0;0;0;0;7;0;26019;0;0;0;0;8;0;25417;0;0;0;0;9;0;13572;0;0;0;0
23.01.20;23:40:00;1;350;14961;0;2;0;16417;0;0;0;0;3;0;10682;0;0;0;0;4;0;12175;0;0;0;0;5;0;36096;0;0;0;0;0;0;6;0;27383;0;0;0;0;0;0;7;0;26019;0;0;0;0;8;0;25417;0;0;0;0;9;0;13572;0;0;0;0
23.01.20;23:35:00;1;960;14916;0;2;0;16417;0;0;0;0;3;0;10682;0;0;0;0;4;0;12175;0;0;0;0;5;0;36096;0;0;0;0;0;0;6;0;27383;0;0;0;0;0;0;7;0;26019;0;0;0;0;8;0;25417;0;0;0;0;9;0;13572;0;0;0;0
23.01.20;23:30:00;1;341;14879;0;2;0;16417;0;0;0;0;3;0;10682;0;0;0;0;4;0;12175;0;0;0;0;5;0;36096;0;0;0;0;0;0;6;0;27383;0;0;0;0;0;0;7;0;26019;0;0;0;0;8;0;25417;0;0;0;0;9;0;13572;0;0;0;0
23.01.20;23:25:00;1;287;14852;0;2;0;16417;0;0;0;0;3;0;10682;0;0;0;0;4;0;12175;0;0;0;0;5;0;36096;0;0;0;0;0;0;6;0;27383;0;0;0;0;0;0;7;0;26019;0;0;0;0;8;0;25417;0;0;0;0;9;0;13572;0;0;0;0
23.01.20;23:20:00;1;324;14828;0;2;0;16417;0;0;0;0;3;0;10682;0;0;0;0;4;0;12175;0;0;0;0;5;0;36096;0;0;0;0;0;0;6;0;27383;0;0;0;0;0;0;7;0;26019;0;0;0;0;8;0;25417;0;0;0;0;9;0;13572;0;0;0;0
23.01.20;23:15:00;1;931;14800;0;2;0;16417;0;0;0;0;3;0;10682;0;0;0;0;4;0;12175;0;0;0;0;5;0;36096;0;0;0;0;0;0;6;0;27383;0;0;0;0;0;0;7;0;26019;0;0;0;0;8;0;25417;0;0;0;0;9;0;13572;0;0;0;0
23.01.20;23:10:00;1;330;14749;0;2;0;16417;0;0;0;0;3;0;10682;0;0;0;0;4;0;12175;0;0;0;0;5;0;36096;0;0;0;0;0;0;6;0;27383;0;0;0;0;0;0;7;0;26019;0;0;0;0;8;0;25417;0;0;0;0;9;0;13572;0;0;0;0
23.01.20;23:05:00;1;335;14722;0;2;0;16417;0;0;0;0;3;0;10682;0;0;0;0;4;0;12175;0;0;0;0;5;0;36096;0;0;0;0;0;0;6;0;27383;0;0;0;0;0;0;7;0;26019;0;0;0;0;8;0;25417;0;0;0;0;9;0;13572;0;0;0;0
23.01.20;23:00:00;1;289;14694;0;2;0;16417;0;0;0;0;3;0;10682;0;0;0;0;4;0;12175;0;0;0;0;5;0;36096;0;0;0;0;0;0;6;0;27383;0;0;0;0;0;0;7;0;26019;0;0;0;0;8;0;25417;0;0;0;0;9;0;13572;0;0;0;0
23.01.20;22:55:00;1;290;14669;0;2;0;16417;0;0;0;0;3;0;10682;0;0;0;0;4;0;12175;0;0;0;0;5;0;36096;2;0;0;0;0;0;6;0;27383;2;0;0;0;0;0;7;0;26019;0;0;0;0;8;0;25417;0;0;0;0;9;0;13572;0;0;0;0
23.01.20;22:50:00;1;297;14645;0;2;0;16417;0;0;0;0;3;0;10682;0;0;0;0;4;0;12175;0;0;0;0;5;0;36096;2;0;0;0;0;0;6;0;27383;2;0;0;0;0;0;7;0;26019;0;0;0;0;8;0;25417;0;0;0;0;9;0;13572;0;0;0;0
23.01.20;22:45:00;1;296;14598;0;2;0;16417;0;0;0;0;3;0;10682;0;0;0;0;4;0;12175;0;0;0;0;5;0;36096;2;0;0;0;0;0;6;0;27383;2;0;0;0;0;0;7;0;26019;0;0;0;0;8;0;25417;0;0;0;0;9;0;13572;0;0;0;0
23.01.20;22:40:00;1;325;14573;0;2;0;16417;0;0;0;0;3;0;10682;0;0;0;0;4;0;12175;0;0;0;0;5;0;36096;2;0;0;0;0;0;6;0;27383;2;0;0;0;0;0;7;0;26019;0;0;0;0;8;0;25417;0;0;0;0;9;0;13572;0;0;0;0
23.01.20;22:35:00;1;361;14545;0;2;0;16417;0;0;0;0;3;0;10682;0;0;0;0;4;0;12175;0;0;0;0;5;0;36096;2;0;0;0;0;0;6;0;27383;2;0;0;0;0;0;7;0;26019;0;0;0;0;8;0;25417;0;0;0;0;9;0;13572;0;0;0;0
23.01.20;22:30:00;1;383;14515;0;2;0;16417;0;0;0;0;3;0;10682;0;0;0;0;4;0;12175;0;0;0;0;5;0;36096;2;0;0;0;0;0;6;0;27383;2;0;0;0;0;0;7;0;26019;0;0;0;0;8;0;25417;0;0;0;0;9;0;13572;0;0;0;0
23.01.20;22:25:00;1;1391;14483;0;2;0;16417;0;0;0;0;3;0;10682;0;0;0;0;4;0;12175;0;0;0;0;5;0;36096;2;0;0;0;0;0;6;0;27383;2;0;0;0;0;0;7;0;26019;0;0;0;0;8;0;25417;0;0;0;0;9;0;13572;0;0;0;0
23.01.20;22:20:00;1;699;14355;0;2;0;16417;0;0;0;0;3;0;10682;0;0;0;0;4;0;12175;0;0;0;0;5;0;36096;2;0;0;0;0;0;6;0;27383;2;0;0;0;0;0;7;0;26019;0;0;0;0;8;0;25417;0;0;0;0;9;0;13572;0;0;0;0
23.01.20;22:15:00;1;716;14296;0;2;0;16417;0;0;0;0;3;0;10682;0;0;0;0;4;0;12175;0;0;0;0;5;0;36096;2;0;0;0;0;0;6;0;27383;2;0;0;0;0;0;7;0;26019;0;0;0;0;8;0;25417;0;0;0;0;9;0;13572;0;0;0;0
23.01.20;22:10:00;1;724;14237;0;2;0;16417;0;0;0;0;3;0;10682;0;0;0;0;4;0;12175;0;0;0;0;5;0;36096;2;0;0;0;0;0;6;0;27383;2;0;0;0;0;0;7;0;26019;0;0;0;0;8;0;25417;0;0;0;0;9;0;13572;0;0;0;0
23.01.20;22:05:00;1;1075;14176;0;2;0;16417;0;0;0;0;3;0;10682;0;0;0;0;4;0;12175;0;0;0;0;5;0;36096;2;0;0;0;0;0;6;0;27383;2;0;0;0;0;0;7;0;26019;0;0;0;0;8;0;25417;0;0;0;0;9;0;13572;0;0;0;0
23.01.20;22:00:00;1;812;14090;0;2;0;16417;0;0;0;0;3;0;10682;0;0;0;0;4;0;12175;0;0;0;0;5;0;36096;2;0;0;0;0;0;6;0;27383;2;0;0;0;0;0;7;0;26019;0;0;0;0;8;0;25417;0;0;0;0;9;0;13572;0;0;0;0
23.01.20;21:55:00;1;805;14020;0;2;0;16417;0;0;0;0;3;0;10682;0;0;0;0;4;0;12175;0;0;0;0;5;0;36096;2;0;0;0;0;0;6;0;27383;2;0;0;0;0;0;7;0;26019;0;0;0;0;8;0;25417;0;0;0;0;9;0;13572;0;0;0;0
23.01.20;21:50:00;1;601;13957;0;2;0;16417;0;0;0;0;3;0;10682;0;0;0;0;4;0;12175;0;0;0;0;5;0;36096;2;0;0;0;0;0;6;0;27383;2;0;0;0;0;0;7;0;26019;0;0;0;0;8;0;25417;0;0;0;0;9;0;13572;0;0;0;0
23.01.20;21:45:00;1;601;13907;0;2;0;16417;0;0;0;0;3;0;10682;0;0;0;0;4;0;12175;0;0;0;0;5;0;36096;2;0;0;0;0;0;6;0;27383;2;0;0;0;0;0;7;0;26019;0;0;0;0;8;0;25417;0;0;0;0;9;0;13572;0;0;0;0
23.01.20;21:40:00;1;605;13857;0;2;0;16417;0;0;0;0;3;0;10682;0;0;0;0;4;0;12175;0;0;0;0;5;0;36096;2;0;0;0;0;0;6;0;27383;2;0;0;0;0;0;7;0;26019;0;0;0;0;8;0;25417;0;0;0;0;9;0;13572;0;0;0;0
23.01.20;21:35:00;1;544;13783;0;2;0;16417;0;0;0;0;3;0;10682;0;0;0;0;4;0;12175;0;0;0;0;5;0;36096;2;0;0;0;0;0;6;0;27383;2;0;0;0;0;0;7;0;26019;0;0;0;0;8;0;25417;0;0;0;0;9;0;13572;0;0;0;0
23.01.20;21:30:00;1;574;13738;0;2;0;16417;0;0;0;0;3;0;10682;0;0;0;0;4;0;12175;0;0;0;0;5;0;36096;2;0;0;0;0;0;6;0;27383;2;0;0;0;0;0;7;0;26019;0;0;0;0;8;0;25417;0;0;0;0;9;0;13572;0;0;0;0
23.01.20;21:25:00;1;593;13688;0;2;0;16417;0;0;0;0;3;0;10682;0;0;0;0;4;0;12175;0;0;0;0;5;0;36096;2;0;0;0;0;0;6;0;27383;2;0;0;0;0;0;7;0;26019;0;0;0;0;8;0;25417;0;0;0;0;9;0;13572;0;0;0;0
23.01.20;21:20:00;1;524;13638;0;2;0;16417;0;0;0;0;3;0;10682;0;0;0;0;4;0;12175;0;0;0;0;5;0;36096;2;0;0;0;0;0;6;0;27383;2;0;0;0;0;0;7;0;26019;0;0;0;0;8;0;25417;0;0;0;0;9;0;13572;0;0;0;0
23.01.20;21:15:00;1;1695;13594;0;2;0;16417;0;0;0;0;3;0;10682;0;0;0;0;4;0;12175;0;0;0;0;5;0;36096;2;0;0;0;0;0;6;0;27383;2;0;0;0;0;0;7;0;26019;0;0;0;0;8;0;25417;0;0;0;0;9;0;13572;0;0;0;0
23.01.20;21:10:00;1;782;13497;0;2;0;16417;0;0;0;0;3;0;10682;0;0;0;0;4;0;12175;0;0;0;0;5;0;36096;2;0;0;0;0;0;6;0;27383;2;0;0;0;0;0;7;0;26019;0;0;0;0;8;0;25417;0;0;0;0;9;0;13572;0;0;0;0
23.01.20;21:05:00;1;780;13431;0;2;0;16417;0;0;0;0;3;0;10682;0;0;0;0;4;0;12175;0;0;0;0;5;0;36096;2;0;0;0;0;0;6;0;27383;2;0;0;0;0;0;7;0;26019;0;0;0;0;8;0;25417;0;0;0;0;9;0;13572;0;0;0;0
23.01.20;21:00:00;1;914;13366;0;2;0;16417;0;0;0;0;3;0;10682;0;0;0;0;4;0;12175;0;0;0;0;5;0;36096;2;0;0;0;0;0;6;0;27383;2;0;0;0;0;0;7;0;26019;0;0;0;0;8;0;25417;0;0;0;0;9;0;13572;0;0;0;0
23.01.20;20:55:00;1;988;13285;0;2;0;16417;0;0;0;0;3;0;10682;0;0;0;0;4;0;12175;0;0;0;0;5;0;36096;2;0;0;0;0;0;6;0;27383;2;0;0;0;0;0;7;0;26019;0;0;0;0;8;0;25417;0;0;0;0;9;0;13572;0;0;0;0
23.01.20;20:50:00;1;992;13203;0;2;0;16417;0;0;0;0;3;0;10682;0;0;0;0;4;0;12175;0;0;0;0;5;0;36096;2;0;0;0;0;0;6;0;27383;2;0;0;0;0;0;7;0;26019;0;0;0;0;8;0;25417;0;0;0;0;9;0;13572;0;0;0;0
23.01.20;20:45:00;1;1062;13090;0;2;0;16417;0;0;0;0;3;0;10682;0;0;0;0;4;0;12175;0;0;0;0;5;0;36096;2;0;0;0;0;0;6;0;27383;2;0;0;0;0;0;7;0;26019;0;0;0;0;8;0;25417;0;0;0;0;9;0;13572;0;0;0;0
23.01.20;20:40:00;1;1127;12999;0;2;0;16417;0;0;0;0;3;0;10682;0;0;0;0;4;0;12175;0;0;0;0;5;0;36096;2;0;0;0;0;0;6;0;27383;2;0;0;0;0;0;7;0;26019;0;0;0;0;8;0;25417;0;0;0;0;9;0;13572;0;0;0;0
23.01.20;20:35:00;1;934;12910;0;2;0;16417;0;0;0;0;3;0;10682;0;0;0;0;4;0;12175;0;0;0;0;5;0;36096;2;0;0;0;0;0;6;0;27383;2;0;0;0;0;0;7;0;26019;0;0;0;0;8;0;25417;0;0;0;0;9;0;13572;0;0;0;0
23.01.20;20:30:00;1;939;12832;0;2;0;16417;0;0;0;0;3;0;10682;0;0;0;0;4;0;12175;0;0;0;0;5;0;36096;2;0;0;0;0;0;6;0;27383;2;0;0;0;0;0;7;0;26019;0;0;0;0;8;0;25417;0;0;0;0;9;0;13572;0;0;0;0
23.01.20;20:25:00;1;1284;12754;0;2;0;16417;0;0;0;0;3;0;10682;0;0;0;0;4;0;12175;0;0;0;0;5;0;36096;2;0;0;0;0;0;6;0;27383;2;0;0;0;0;0;7;0;26019;0;0;0;0;8;0;25417;0;0;0;0;9;0;13572;0;0;0;0
23.01.20;20:20:00;1;1021;12653;0;2;0;16417;0;0;0;0;3;0;10682;0;0;0;0;4;0;12175;0;0;0;0;5;0;36096;2;0;0;0;0;0;6;0;27383;2;0;0;0;0;0;7;0;26019;0;0;0;0;8;0;25417;0;0;0;0;9;0;13572;0;0;0;0
23.01.20;20:15:00;1;1169;12563;0;2;0;16417;0;0;0;0;3;0;10682;0;0;0;0;4;0;12175;0;0;0;0;5;0;36096;2;0;0;0;0;0;6;0;27383;2;0;0;0;0;0;7;0;26019;0;0;0;0;8;0;25417;0;0;0;0;9;0;13572;0;0;0;0
23.01.20;20:10:00;1;1149;12463;0;2;0;16417;0;0;0;0;3;0;10682;0;0;0;0;4;0;12175;0;0;0;0;5;0;36096;2;0;0;0;0;0;6;0;27383;2;0;0;0;0;0;7;0;26019;0;0;0;0;8;0;25417;0;0;0;0;9;0;13572;0;0;0;0
23.01.20;20:05:00;1;1061;12363;0;2;0;16417;0;0;0;0;3;0;10682;0;0;0;0;4;0;12175;0;0;0;0;5;0;36096;2;0;0;0;0;0;6;0;27383;2;0;0;0;0;0;7;0;26019;0;0;0;0;8;0;25417;0;0;0;0;9;0;13572;0;0;0;0
23.01.20;20:00:00;1;2306;12259;0;2;0;16417;0;0;0;0;3;0;10682;0;0;0;0;4;0;12175;0;0;0;0;5;0;36096;2;0;0;0;0;0;6;0;27383;2;0;0;0;0;0;7;0;26019;0;0;0;0;8;0;25417;0;0;0;0;9;0;13572;0;0;0;0
23.01.20;19:55:00;1;1710;12114;0;2;0;16417;0;0;0;0;3;0;10682;0;0;0;0;4;0;12175;0;0;0;0;5;0;36096;2;0;0;0;0;0;6;0;27383;2;0;0;0;0;0;7;0;26019;0;0;0;0;8;0;25417;0;0;0;0;9;0;13572;0;0;0;0
23.01.20;19:50:00;1;1009;12004;0;2;0;16417;0;0;0;0;3;0;10682;0;0;0;0;4;0;12175;0;0;0;0;5;0;36096;2;0;0;0;0;0;6;0;27383;2;0;0;0;0;0;7;0;26019;0;0;0;0;8;0;25417;0;0;0;0;9;0;13572;0;0;0;0
23.01.20;19:45:00;1;1510;11918;0;2;0;16417;0;0;0;0;3;0;10682;0;0;0;0;4;0;12175;0;0;0;0;5;0;36096;2;0;0;0;0;0;6;0;27383;2;0;0;0;0;0;7;0;26019;0;0;0;0;8;0;25417;0;0;0;0;9;0;13572;0;0;0;0
23.01.20;19:40:00;1;1130;11813;0;2;0;16417;0;0;0;0;3;0;10682;0;0;0;0;4;0;12175;0;0;0;0;5;0;36096;2;0;0;0;0;0;6;0;27383;2;0;0;0;0;0;7;0;26019;0;0;0;0;8;0;25417;0;0;0;0;9;0;13572;0;0;0;0
23.01.20;19:35:00;1;1160;11718;0;2;0;16417;0;0;0;0;3;0;10682;0;0;0;0;4;0;12175;0;0;0;0;5;0;36096;2;0;0;0;0;0;6;0;27383;2;0;0;0;0;0;7;0;26019;0;0;0;0;8;0;25417;0;0;0;0;9;0;13572;0;0;0;0
23.01.20;19:30:00;1;1159;11624;0;2;0;16417;0;0;0;0;3;0;10682;0;0;0;0;4;0;12175;0;0;0;0;5;0;36096;2;0;0;0;0;0;6;0;27383;2;0;0;0;0;0;7;0;26019;0;0;0;0;8;0;25417;0;0;0;0;9;0;13572;0;0;0;0
23.01.20;19:25:00;1;1725;11527;0;2;0;16417;0;0;0;0;3;0;10682;0;0;0;0;4;0;12175;0;0;0;0;5;0;36096;2;0;0;0;0;0;6;0;27383;2;0;0;0;0;0;7;0;26019;0;0;0;0;8;0;25417;0;0;0;0;9;0;13572;0;0;0;0
23.01.20;19:20:00;1;1159;11404;0;2;0;16417;0;0;0;0;3;0;10682;0;0;0;0;4;0;12175;0;0;0;0;5;0;36096;2;0;0;0;0;0;6;0;27383;2;0;0;0;0;0;7;0;26019;0;0;0;0;8;0;25417;0;0;0;0;9;0;13572;0;0;0;0
23.01.20;19:15:00;1;1158;11309;0;2;0;16417;0;0;0;0;3;0;10682;0;0;0;0;4;0;12175;0;0;0;0;5;0;36096;2;0;0;0;0;0;6;0;27383;2;0;0;0;0;0;7;0;26019;0;0;0;0;8;0;25417;0;0;0;0;9;0;13572;0;0;0;0
23.01.20;19:10:00;1;1031;11215;0;2;0;16417;0;0;0;0;3;0;10682;0;0;0;0;4;0;12175;0;0;0;0;5;0;36096;2;0;0;0;0;0;6;0;27383;2;0;0;0;0;0;7;0;26019;0;0;0;0;8;0;25417;0;0;0;0;9;0;13572;0;0;0;0
23.01.20;19:05:00;1;2281;11128;0;2;0;16417;0;0;0;0;3;0;10682;0;0;0;0;4;0;12175;0;0;0;0;5;0;36096;2;0;0;0;0;0;6;0;27383;2;0;0;0;0;0;7;0;26019;0;0;0;0;8;0;25417;0;0;0;0;9;0;13572;0;0;0;0
23.01.20;19:00:00;1;2833;10943;0;2;0;16417;0;0;0;0;3;0;10682;0;0;0;0;4;0;12175;0;0;0;0;5;0;36096;2;0;0;0;0;0;6;0;27383;2;0;0;0;0;0;7;0;26019;0;0;0;0;8;0;25417;0;0;0;0;9;0;13572;0;0;0;0
23.01.20;18:55:00;1;3260;10692;0;2;0;16417;0;0;0;0;3;0;10682;0;0;0;0;4;0;12175;0;0;0;0;5;0;36096;2;0;0;0;0;0;6;0;27383;2;0;0;0;0;0;7;0;26019;0;0;0;0;8;0;25417;0;0;0;0;9;0;13572;0;0;0;0
23.01.20;18:50:00;1;2999;10421;0;2;0;16417;0;0;0;0;3;0;10682;0;0;0;0;4;0;12175;0;0;0;0;5;0;36096;2;0;0;0;0;0;6;0;27383;2;0;0;0;0;0;7;0;26019;0;0;0;0;8;0;25417;0;0;0;0;9;0;13572;0;0;0;0
23.01.20;18:45:00;1;1005;10226;0;2;0;16417;0;0;0;0;3;0;10682;0;0;0;0;4;0;12175;0;0;0;0;5;0;36096;2;0;0;0;0;0;6;0;27383;2;0;0;0;0;0;7;0;26019;0;0;0;0;8;0;25417;0;0;0;0;9;0;13572;0;0;0;0
23.01.20;18:40:00;1;903;10141;0;2;0;16417;0;0;0;0;3;0;10682;0;0;0;0;4;0;12175;0;0;0;0;5;0;36096;2;0;0;0;0;0;6;0;27383;2;0;0;0;0;0;7;0;26019;0;0;0;0;8;0;25417;0;0;0;0;9;0;13572;0;0;0;0
23.01.20;18:35:00;1;954;10066;0;2;0;16417;0;0;0;0;3;0;10682;0;0;0;0;4;0;12175;0;0;0;0;5;0;36096;2;0;0;0;0;0;6;0;27383;2;0;0;0;0;0;7;0;26019;0;0;0;0;8;0;25417;0;0;0;0;9;0;13572;0;0;0;0
23.01.20;18:30:00;1;953;9986;0;2;0;16417;0;0;0;0;3;0;10682;0;0;0;0;4;0;12175;0;0;0;0;5;0;36096;2;0;0;0;0;0;6;0;27383;2;0;0;0;0;0;7;0;26019;0;0;0;0;8;0;25417;0;0;0;0;9;0;13572;0;0;0;0
23.01.20;18:25:00;1;968;9907;0;2;0;16417;0;0;0;0;3;0;10682;0;0;0;0;4;0;12175;0;0;0;0;5;0;36096;2;0;0;0;0;0;6;0;27383;2;0;0;0;0;0;7;0;26019;0;0;0;0;8;0;25417;0;0;0;0;9;0;13572;0;0;0;0
23.01.20;18:20:00;1;1677;9826;0;2;0;16417;0;0;0;0;3;0;10682;0;0;0;0;4;0;12175;0;0;0;0;5;0;36096;2;0;0;0;0;0;6;0;27383;2;0;0;0;0;0;7;0;26019;0;0;0;0;8;0;25417;0;0;0;0;9;0;13572;0;0;0;0
23.01.20;18:15:00;1;931;9719;0;2;0;16417;0;0;0;0;3;0;10682;0;0;0;0;4;0;12175;0;0;0;0;5;0;36096;2;0;0;0;0;0;6;0;27383;2;0;0;0;0;0;7;0;26019;0;0;0;0;8;0;25417;0;0;0;0;9;0;13572;0;0;0;0
23.01.20;18:10:00;1;911;9642;0;2;0;16417;0;0;0;0;3;0;10682;0;0;0;0;4;0;12175;0;0;0;0;5;0;36096;2;0;0;0;0;0;6;0;27383;2;0;0;0;0;0;7;0;26019;0;0;0;0;8;0;25417;0;0;0;0;9;0;13572;0;0;0;0
23.01.20;18:05:00;1;908;9566;0;2;0;16417;0;0;0;0;3;0;10682;0;0;0;0;4;0;12175;0;0;0;0;5;0;36096;2;0;0;0;0;0;6;0;27383;2;0;0;0;0;0;7;0;26019;0;0;0;0;8;0;25417;0;0;0;0;9;0;13572;0;0;0;0
23.01.20;18:00:00;1;953;9491;0;2;0;16417;0;0;0;0;3;0;10682;0;0;0;0;4;0;12175;0;0;0;0;5;0;36096;2;0;0;0;0;0;6;0;27383;2;0;0;0;0;0;7;0;26019;0;0;0;0;8;0;25417;0;0;0;0;9;0;13572;0;0;0;0
23.01.20;17:55:00;1;1456;9408;0;2;0;16417;0;0;0;0;3;0;10682;0;0;0;0;4;0;12175;0;0;0;0;5;0;36096;2;0;0;0;0;0;6;0;27383;2;0;0;0;0;0;7;0;26019;0;0;0;0;8;0;25417;0;0;0;0;9;0;13572;0;0;0;0
23.01.20;17:50:00;1;1063;9270;0;2;0;16417;0;0;0;0;3;0;10682;0;0;0;0;4;0;12175;0;0;0;0;5;0;36096;2;0;0;0;0;0;6;0;27383;2;0;0;0;0;0;7;0;26019;0;0;0;0;8;0;25417;0;0;0;0;9;0;13572;0;0;0;0
23.01.20;17:45:00;1;986;9185;0;2;0;16417;0;0;0;0;3;0;10682;0;0;0;0;4;0;12175;0;0;0;0;5;0;36096;2;0;0;0;0;0;6;0;27383;2;0;0;0;0;0;7;0;26019;0;0;0;0;8;0;25417;0;0;0;0;9;0;13572;0;0;0;0
23.01.20;17:40:00;1;1073;9080;0;2;0;16417;0;0;0;0;3;0;10682;0;0;0;0;4;0;12175;0;0;0;0;5;0;36096;2;0;0;0;0;0;6;0;27383;2;0;0;0;0;0;7;0;26019;0;0;0;0;8;0;25417;0;0;0;0;9;0;13572;0;0;0;0
23.01.20;17:35:00;1;1366;8989;0;2;0;16417;0;0;0;0;3;0;10682;0;0;0;0;4;0;12175;0;0;0;0;5;0;36096;2;0;0;0;0;0;6;0;27383;2;0;0;0;0;0;7;0;26019;0;0;0;0;8;0;25417;0;0;0;0;9;0;13572;0;0;0;0
23.01.20;17:30:00;1;1359;8872;0;2;0;16417;0;0;0;0;3;0;10682;0;0;0;0;4;0;12175;0;0;0;0;5;0;36096;2;0;0;0;0;0;6;0;27383;2;0;0;0;0;0;7;0;26019;0;0;0;0;8;0;25417;0;0;0;0;9;0;13572;0;0;0;0
23.01.20;17:25:00;1;2912;8759;0;2;0;16417;0;0;0;0;3;0;10682;0;0;0;0;4;0;12175;0;0;0;0;5;0;36096;2;0;0;0;0;0;6;0;27383;2;0;0;0;0;0;7;0;26019;0;0;0;0;8;0;25417;0;0;0;0;9;0;13572;0;0;0;0
23.01.20;17:20:00;1;3517;8513;0;2;0;16417;0;0;85;4;3;0;10682;0;0;181;10;4;0;12175;0;0;0;0;5;0;36096;2;0;0;0;0;0;6;0;27383;2;0;0;0;0;0;7;0;26019;0;0;0;0;8;0;25417;0;0;0;0;9;0;13572;0;0;0;0
23.01.20;17:15:00;1;2584;8197;0;2;0;16417;6;0;302;14;3;0;10682;6;0;341;16;4;0;12175;0;0;26;4;5;0;36096;2;0;0;0;0;0;6;0;27383;2;0;0;0;0;0;7;0;26019;0;0;0;0;8;0;25417;0;0;0;0;9;0;13572;0;0;0;0
23.01.20;17:10:00;1;1399;7972;0;2;0;16417;6;0;348;15;3;0;10682;6;2;408;17;4;0;12175;2;0;90;10;5;0;36096;2;0;1;129;128;13;6;0;27383;1;1;0;36;67;4;7;0;26019;0;0;0;0;8;0;25417;0;0;0;0;9;0;13572;0;0;0;0
23.01.20;17:05:00;1;1518;7846;0;2;0;16417;6;0;380;15;3;0;10682;6;2;450;17;4;0;12175;1;0;139;10;5;0;36096;23;0;0;391;391;23;6;0;27383;23;6;3;255;433;21;7;0;26019;6;0;301;17;8;0;25417;6;0;296;16;9;0;13572;6;0;299;11
23.01.20;17:00:00;1;1293;7722;0;2;0;16417;6;0;398;16;3;1;10682;6;7;447;17;4;0;12175;1;0;180;11;5;0;36096;23;0;0;418;585;24;6;0;27383;23;0;10;580;180;22;7;0;26019;6;0;216;10;8;0;25417;6;0;371;16;9;0;13572;6;0;368;11
23.01.20;16:55:00;1;1109;7616;0;2;1;16417;6;7;404;16;3;1;10682;6;5;501;17;4;0;12175;1;0;211;11;5;9;36095;4;0;0;422;668;24;6;0;27383;23;5;4;266;587;22;7;0;26019;4;0;338;14;8;0;25417;6;0;426;17;9;0;13572;6;1;445;12
23.01.20;16:50:00;1;1104;7525;0;2;4;16417;6;10;410;17;3;0;10681;6;6;513;18;4;0;12175;3;0;223;12;5;72;36095;4;5;8;384;609;25;6;30;27383;1;9;18;527;507;23;7;0;26019;3;2;450;18;8;0;25417;6;2;453;17;9;0;13572;6;2;488;12
23.01.20;16:45:00;1;1161;7401;0;2;21;16417;6;35;392;18;3;1;10681;6;6;525;18;4;0;12175;3;0;199;12;5;101;36088;4;25;26;384;609;25;6;66;27381;4;28;37;472;448;24;7;1;26019;6;7;395;15;8;2;25417;6;8;458;18;9;2;13572;6;3;523;12
23.01.20;16:40:00;1;1553;7300;0;2;55;16415;4;87;366;19;3;4;10681;3;10;533;18;4;7;12175;3;7;199;12;5;130;36080;4;41;36;384;609;26;6;84;27375;4;44;56;472;448;24;7;14;26019;0;26;346;15;8;4;25417;3;9;385;14;9;1;13571;6;5;421;10
23.01.20;16:35:00;1;2246;7160;0;2;78;16410;4;110;364;19;3;7;10681;6;12;543;19;4;22;12174;3;22;198;13;5;160;36069;4;54;49;384;609;26;6;105;27368;4;45;61;471;447;24;7;49;26017;4;88;410;20;8;35;25417;0;70;343;15;9;2;13571;6;6;263;6
23.01.20;16:30:00;1;2658;6973;0;2;118;16404;4;151;382;20;3;23;10680;6;38;525;19;4;51;12173;3;53;198;13;5;189;36055;4;79;54;384;609;26;6;134;27359;4;61;77;472;448;24;7;95;26013;4;126;454;20;8;58;25413;0;93;347;15;9;11;13570;3;20;517;13
23.01.20;16:25:00;1;2639;6755;0;2;582;16394;4;634;392;21;3;273;10678;4;314;438;20;4;246;12168;5;256;200;13;5;274;36039;4;113;111;384;609;26;6;289;27347;4;129;178;511;546;24;7;159;26005;4;202;456;20;8;104;25408;4;140;419;20;9;7;13569;6;11;563;14
23.01.20;16:20:00;1;2641;6535;0;2;780;16346;4;840;395;21;3;415;10656;4;463;442;20;4;287;12148;5;299;199;13;5;649;36015;4;311;268;416;674;26;6;548;27322;4;265;293;592;581;25;7;197;25992;4;225;368;16;8;165;25399;4;201;424;20;9;10;13569;6;15;563;14
23.01.20;16:15:00;1;2479;6317;0;2;953;16281;4;1020;397;22;3;507;10622;4;556;442;20;4;300;12124;5;313;201;13;5;923;35957;4;459;380;422;701;27;6;715;27275;4;355;381;605;582;25;7;671;25967;0;717;348;18;8;302;25385;4;338;438;21;9;34;13568;6;50;346;10
23.01.20;16:10:00;1;684;6151;0;2;1110;16201;4;1184;393;22;3;591;10579;4;649;452;20;4;340;12099;5;354;200;14;5;1146;35877;4;580;478;429;708;27;6;870;27213;4;425;437;608;588;25;7;1097;25911;4;1166;467;22;8;469;25360;4;506;369;21;9;80;13564;4;112;502;16
23.01.20;16:05:00;1;586;6094;0;2;1268;16109;4;1345;397;22;3;681;10530;4;741;449;20;4;380;12070;5;396;200;14;5;1358;35780;4;692;575;428;697;27;6;1047;27139;4;540;544;602;588;25;7;1149;25819;4;1219;400;18;8;602;25321;4;637;302;17;9;96;13558;4;129;512;16
23.01.20;16:00:00;1;563;6047;0;2;1382;16003;4;1465;398;23;3;751;10473;4;813;446;21;4;375;12039;5;390;202;14;5;1557;35665;4;804;661;428;698;27;6;1196;27051;4;599;606;614;586;25;7;854;25702;4;901;267;14;8;839;25261;4;884;368;23;9;84;13550;4;110;395;13
23.01.20;15:55:00;1;285;5979;0;2;1496;15888;4;1585;401;23;3;809;10411;4;871;442;21;4;378;12007;5;393;201;14;5;1759;35533;4;916;759;428;703;28;6;1356;26950;4;707;711;608;585;25;7;1477;25582;4;1549;426;24;8;1041;25189;4;1104;385;23;9;109;13541;4;136;360;17
23.01.20;15:50:00;1;1204;5954;0;2;1621;15764;4;1709;395;24;3;873;10343;4;938;452;21;4;408;11976;5;425;208;15;5;1973;35385;4;1033;847;437;698;28;6;1498;26836;4;782;773;605;578;25;7;1570;25459;4;1652;438;25;8;1409;25103;4;1478;424;24;9;188;13532;4;218;353;18
23.01.20;15:45:00;1;244;5910;0;2;1738;15628;4;1834;386;25;3;939;10271;4;1005;447;22;4;424;11942;5;441;204;15;5;2196;35219;4;1167;946;429;695;28;6;1673;26709;4;844;850;599;580;26;7;2071;25329;4;2178;493;25;8;2026;24986;4;2127;460;25;9;249;13516;4;272;236;13
23.01.20;15:40:00;1;247;5890;0;2;1831;15484;4;1931;392;25;3;1022;10192;4;1091;433;22;4;461;11906;5;481;208;15;5;2391;35035;4;1257;1024;427;710;28;6;1814;26569;4;942;931;603;581;26;7;2561;25156;4;2693;488;26;8;1962;24817;4;2051;372;20;9;840;13483;4;888;354;20
23.01.20;15:35:00;1;275;5869;0;2;1940;15331;4;2044;390;26;3;1088;10107;4;1157;434;23;4;486;11868;5;507;216;16;5;2610;34834;4;1387;1137;431;692;29;6;1983;26417;4;999;996;603;578;26;7;2821;24944;4;2964;484;26;8;2731;24616;4;2868;477;26;9;1025;13414;4;1082;373;21
23.01.20;15:30:00;1;245;5826;0;2;2021;15170;4;2128;392;27;3;1130;10017;4;1203;429;23;4;519;11827;5;541;228;16;5;2781;34616;4;1485;1220;431;692;29;6;2131;26251;4;1097;1080;602;578;26;7;2961;24709;4;3096;478;26;8;2901;24387;4;3038;478;26;9;1192;13329;4;1258;413;22
23.01.20;15:25:00;1;246;5806;0;2;2121;15001;4;2234;389;27;3;1196;9923;4;1268;430;23;4;564;11784;5;587;222;16;5;3018;34381;4;1617;1317;431;700;29;6;2293;26072;4;1194;1177;600;582;26;7;3106;24460;4;3261;478;27;8;3059;24145;4;3208;480;27;9;1412;13229;4;1493;461;23
23.01.20;15:20:00;1;292;5785;0;2;2191;14825;4;2310;398;28;3;1233;9823;4;1308;437;24;4;593;11737;5;617;227;17;5;3190;34128;4;1730;1399;428;707;29;6;2430;25881;4;1238;1213;602;578;26;7;3226;24202;4;3378;481;27;8;2537;23889;4;2657;380;21;9;1555;13111;4;1641;483;24
23.01.20;15:15:00;1;303;5738;0;2;2398;14642;4;2524;407;29;3;1303;9720;4;1381;439;24;4;631;11688;5;657;225;17;5;3412;33859;4;1772;1452;432;699;30;6;2580;25676;4;1332;1308;599;579;26;7;3343;23933;4;3506;479;28;8;3301;23626;4;3454;474;27;9;1712;12982;4;1814;509;25
23.01.20;15:10:00;1;307;5713;0;2;2491;14442;4;2628;409;29;3;1421;9612;4;1516;473;25;4;678;11635;5;706;234;17;5;3605;33574;4;1948;1576;430;692;30;6;2730;25460;4;1370;1342;599;580;26;7;3466;23654;4;3637;471;28;8;3429;23351;4;3596;477;28;9;1841;12839;4;1951;522;25
23.01.20;15:05:00;1;702;5687;0;2;2562;14234;4;2701;407;29;3;1546;9493;4;1641;491;25;4;719;11578;5;749;231;18;5;3792;33273;4;2061;1673;429;687;30;6;2876;25231;4;1489;1465;601;581;27;7;3570;23366;4;3750;474;28;8;3519;23063;4;3694;475;28;9;1919;12685;4;2031;526;26
23.01.20;15:00:00;1;341;5639;0;2;2628;14022;4;2771;409;30;3;1643;9364;4;1747;508;26;4;765;11519;5;797;238;18;5;3964;32956;4;2143;1744;431;687;30;6;3009;24991;4;1553;1518;596;578;27;7;3667;23069;4;3841;476;28;8;3616;22770;4;3796;472;28;9;1977;12526;4;2091;523;26
23.01.20;14:55:00;1;341;5611;0;2;2696;13802;4;2842;408;30;3;1729;9228;4;1836;524;26;4;829;11455;5;863;241;18;5;4172;32623;4;2264;1839;429;689;30;6;3161;24739;4;1629;1605;600;580;27;7;3790;22762;4;3979;472;29;8;3741;22468;4;3931;475;28;9;2049;12360;4;2169;525;26
23.01.20;14:50:00;1;344;5582;0;2;2759;13577;4;2907;405;31;3;1772;9084;4;1883;516;26;4;865;11386;5;900;240;18;5;4331;32276;4;2355;1910;427;692;30;6;3280;24475;4;1694;1664;598;582;27;7;3894;22453;4;4084;476;29;8;3837;22163;4;4024;471;29;9;2110;12193;4;2230;523;27
23.01.20;14:45:00;1;340;5530;0;2;2837;13348;4;2989;405;31;3;1825;8936;4;1936;511;26;4;928;11314;5;967;232;19;5;4537;31913;4;2474;2004;429;691;31;6;3440;24200;4;1762;1725;595;581;27;7;3984;22126;4;4181;473;29;8;3947;21844;4;4130;472;29;9;2157;12017;4;2283;522;27
23.01.20;14:40:00;1;241;5504;0;2;2898;13112;4;3052;406;31;3;1861;8784;4;1976;522;27;4;943;11237;5;983;227;19;5;4709;31534;4;2571;2084;424;698;31;6;3577;23913;4;1831;1796;595;580;27;7;4097;21792;4;4304;470;30;8;4060;21510;4;4256;474;29;9;2228;11836;4;2357;523;27
23.01.20;14:35:00;1;636;5484;0;2;2953;12870;4;3109;407;31;3;1901;8629;4;2015;523;27;4;997;11158;5;1039;230;20;5;4879;31140;4;2652;2164;429;688;31;6;3699;23614;4;1897;1857;597;581;27;7;4187;21453;4;4395;474;30;8;4147;21177;4;4348;471;29;9;1897;11652;4;2005;436;23
23.01.20;14:30:00;1;241;5441;0;2;2998;12624;4;3162;408;32;3;1934;8471;4;2050;521;27;4;1045;11075;5;1089;239;20;5;5042;30731;4;2763;2231;427;687;31;6;3825;23305;4;1952;1917;599;582;27;7;4271;21101;4;4481;475;30;8;4238;20825;4;4440;470;30;9;2328;11460;4;2462;523;28
23.01.20;14:25:00;1;243;5421;0;2;3044;12375;4;3208;409;32;3;1963;8310;4;2083;516;27;4;1148;10988;5;1195;231;20;5;5202;30311;4;2848;2309;425;696;31;6;3960;22985;4;2036;1987;597;583;27;7;4350;20746;4;4562;472;30;8;4318;20473;4;4527;466;30;9;1898;11264;4;2009;413;22